Regional Weather Roundup
Issued by NWS

Home | Current Version | Previous Version | Text Only | Print | Product List | Glossary Off
Versions: 1 2 3 4 5 6 7 8 9 10 11 12 13 14 15 16 17 18 19 20 21 22 23 24 25 26 27 28 29 30 31 32 33 34 35 36 37 38 39 40 41 42 43 44 45 46 47 48 49 50

000
ASUS43 KLMK 222302
RWRKY
KENTUCKY REGIONAL WEATHER ROUNDUP
NATIONAL WEATHER SERVICE LOUISVILLE KY
700 PM EDT WED OCT 22 2014

NOTE "FAIR" INDICATES FEW OR NO CLOUDS BELOW 12,000 FEET
WITH NO SIGNIFICANT WEATHER AND/OR OBSTRUCTIONS TO VISIBILITY.

KYZ001>023-026-027-061>063-070>075-230000-
WESTERN AND SOUTH CENTRAL KENTUCKY

CITY           SKY/WX    TMP DP  RH WIND       PRES   REMARKS
PADUCAH        CLEAR     59  42  53 NE8       30.21S
HENDERSON      CLEAR    N/A N/A N/A NE5       30.23R
OWENSBORO      CLEAR     60  41  49 NE3       30.23S
HOPKINSVILLE   CLEAR     55  42  60 NE7       30.21S
BOWLING GREEN  CLEAR     58  41  53 N5        30.22R
GLASGOW        NOT AVBL
$$

KYZ024-025-028>034-038-045-046-053-230000-
NORTH CENTRAL KENTUCKY

CITY           SKY/WX    TMP DP  RH WIND       PRES   REMARKS
LOUISVILLE/SDF PTCLDY    58  40  51 VRB6      30.23S
LOUISVILLE/LOU PTCLDY    58  40  51 NE3       30.24S
FORT KNOX      CLEAR     55  42  61 NE5       30.22S
$$

KYZ035>037-039>044-047>052-055>060-089>105-230000-
NORTHEAST KENTUCKY

CITY           SKY/WX    TMP DP  RH WIND       PRES   REMARKS
LEXINGTON      CLOUDY    54  42  64 NE5       30.24F
COVINGTON      MOCLDY    52  38  58 E9        30.25F
FRANKFORT      CLEAR     53  39  59 N3        30.24S
$$

KYZ054-064>069-076>088-106>120-230000-
SOUTHEAST KENTUCKY

CITY           SKY/WX    TMP DP  RH WIND       PRES   REMARKS
JACKSON        CLOUDY    49  41  74 CALM      30.23S
LONDON         CLOUDY    50  40  68 N3        30.25R
SOMERSET       CLOUDY    46  37  71 CALM      30.27S
MIDDLESBORO    NOT AVBL
MONTICELLO     MOCLDY    50  41  71 NE7       30.27R
$$




USA.gov is the U.S. government's official web portal to all federal, state and local government web resources and services.